Starlink 11191

operational
NORAD ID: 60410 Int'l Des: 2024-141 Owner: SPXS Country: US Constellation: starlink
LEOCIRCULAR

关于 Starlink 11191

正在加载描述...

实时位置

正在加载3D地球...

即将过境

高度历史

Altitude vs Time

uPlot chart will show altitude changes over time

两行轨道根数

1 60410U 24141N 26035.32321537 -.00000190 00000-0 32911-5 0 9997
2 60410 53.1574 250.6431 0000872 136.3604 223.7483 15.69705243 86509
Epoch: Feb 4, 2026 • Age: 14 hours

当前状态

高度 364.8 km
速度 7.70 km/s
星下点 47.52°N, 159.75°W
发射日期 Aug 10, 2024
运行时间 1.4 years
类型 internet

技术详情

分类 Payload
质量 960.00 kg
干质量 910.00 kg
总质量 960.00 kg
长度 0.30 m
直径 4.10 m
跨度 29.00 m
形状 Box + pan
制造商 SPXS
平台类型 Starlink V2MD
阶段状态 In Orbit
所有者/国家 SPXS/US

大型星座

Loading constellations...